Emporia, Virginia, United States (23847)
Lat: 36.69N, Lon: 77.54W
Wx Zone: VAZ087
Local Info
Past Weather Observations for Wednesday, February 3, 2016

NOTE: This archive is for the closest National Weather Service station to Emporia. Information may differ from the station used for current weather conditions.

Click here for Long-term Archive

Time Weather Temperature Dewpoint Humidity Pressure Winds Precip Visibility
23:55
Overcast
Rain
61°F / 16°C 61°F / 16°C 100% 29.95 in
(1014 mb)
SE 5.8 mph
(SE 9 kph)
0.05 in
(1.27 mm)
7SM
23:35
Overcast
Light Rain
61°F / 16°C 61°F / 16°C 100% 29.98 in
(1015 mb)
SE 5.8 mph
(SE 9 kph)
0.03 in
(0.76 mm)
7SM
23:15
Overcast
Light Snow
61°F / 16°C 61°F / 16°C 100% 29.98 in
(1015 mb)
SE 6.9 mph
(SE 11 kph)
0.01 in
(0.25 mm)
7SM
22:55
Overcast
Rain
61°F / 16°C 61°F / 16°C 100% 29.98 in
(1015 mb)
SE 9.2 mph
(SE 15 kph)
0.06 in
(1.52 mm)
7SM
22:35
Overcast
Rain
61°F / 16°C 61°F / 16°C 100% 29.98 in
(1015 mb)
SE 9.2 mph
(SE 15 kph)
0.03 in
(0.76 mm)
10SM
22:15
Overcast
Rain
61°F / 16°C 61°F / 16°C 100% 29.98 in
(1015 mb)
SSE 5.8 mph
(SSE 9 kph)
0.01 in
(0.25 mm)
7SM
21:55
Overcast
Rain
61°F / 16°C 61°F / 16°C 100% 29.98 in
(1015 mb)
SE 10.4 mph
(SE 17 kph)
0.01 in
(0.25 mm)
10SM
21:35
Overcast
Light Snow
61°F / 16°C 61°F / 16°C 100% 29.98 in
(1015 mb)
SE 9.2 mph
(SE 15 kph)
0.01 in
(0.25 mm)
10SM
21:15
Overcast
Rain
61°F / 16°C 61°F / 16°C 100% 29.98 in
(1015 mb)
SE 9.2 mph
(SE 15 kph)
- 10SM
20:55
Overcast
Light Snow
61°F / 16°C 61°F / 16°C 100% 29.98 in
(1015 mb)
SE 10.4 mph
(SE 17 kph)
0.04 in
(1.02 mm)
10SM
20:35
Overcast
Light Rain
61°F / 16°C 61°F / 16°C 100% 29.98 in
(1015 mb)
SE 9.2 mph
(SE 15 kph)
0.03 in
(0.76 mm)
20:15
Overcast
Light Rain
61°F / 16°C 61°F / 16°C 100% 29.98 in
(1015 mb)
SE 9.2 mph
(SE 15 kph)
0.02 in
(0.51 mm)
10SM
19:55
Overcast
Rain
61°F / 16°C 61°F / 16°C 100% 29.98 in
(1015 mb)
SE 9.2 mph
(SE 15 kph)
0.08 in
(2.03 mm)
7SM
19:35
Overcast
Light Snow
61°F / 16°C 61°F / 16°C 100% 30.01 in
(1016 mb)
SE 6.9 mph
(SE 11 kph)
0.05 in
(1.27 mm)
5SM
19:15
Rain
61°F / 16°C 61°F / 16°C 100% 30.01 in
(1016 mb)
SE 6.9 mph
(SE 11 kph)
0.03 in
(0.76 mm)
18:55
Overcast
Light Snow
61°F / 16°C 61°F / 16°C 100% 29.98 in
(1015 mb)
SE 9.2 mph
(SE 15 kph)
0.06 in
(1.52 mm)
7SM
18:35
Overcast
Light Rain
61°F / 16°C 61°F / 16°C 100% 29.98 in
(1015 mb)
SE 6.9 mph
(SE 11 kph)
0.04 in
(1.02 mm)
10SM
18:15
Overcast
Rain
61°F / 16°C 61°F / 16°C 100% 29.98 in
(1015 mb)
ESE 6.9 mph
(ESE 11 kph)
0.03 in
(0.76 mm)
7SM
17:55
Overcast
Rain
61°F / 16°C 61°F / 16°C 100% 29.98 in
(1015 mb)
E 6.9 mph
(E 11 kph)
0.18 in
(4.57 mm)
5SM
17:35
Overcast
Rain
61°F / 16°C 61°F / 16°C 100% 29.98 in
(1015 mb)
E 4.6 mph
(E 7 kph)
0.13 in
(3.30 mm)
7SM
17:15
Overcast
Rain
61°F / 16°C 61°F / 16°C 100% 29.98 in
(1015 mb)
SE 5.8 mph
(SE 9 kph)
0.08 in
(2.03 mm)
4SM
16:55
Overcast
Heavy Rain
61°F / 16°C 61°F / 16°C 100% 29.98 in
(1015 mb)
Calm 0.98 in
(24.89 mm)
1 1/4SM
16:35
Overcast
Heavy Rain
61°F / 16°C 61°F / 16°C 100% 29.98 in
(1015 mb)
SW 5.8 mph
(SW 9 kph)
0.52 in
(13.21 mm)
1 1/4SM
16:15
Overcast
Heavy Rain
68°F / 20°C 61°F / 16°C 78% 29.98 in
(1015 mb)
WNW 9.2 mph
(WNW 15 kph)
0.02 in
(0.51 mm)
10SM
15:55
Overcast
Light Rain
70°F / 21°C 61°F / 16°C 73% 29.92 in
(1013 mb)
SSE 6.9 mph
(SSE 11 kph)
- 10SM
15:35
Overcast
Light Rain
70°F / 21°C 61°F / 16°C 73% 29.92 in
(1013 mb)
SSE 9.2 mph
(SSE 15 kph)
- 10SM
15:15
Overcast
70°F / 21°C 61°F / 16°C 73% 29.92 in
(1013 mb)
SSE 13.8 mph
(SSE 22 kph)
- 10SM
14:55
Mostly Cloudy
70°F / 21°C 61°F / 16°C 73% 29.92 in
(1013 mb)
SSE 11.5 mph
(SSE 19 kph)
0.02 in
(0.51 mm)
10SM
14:35
Mostly Cloudy
68°F / 20°C 61°F / 16°C 78% 29.92 in
(1013 mb)
SSE 13.8 mph
(SSE 22 kph)
0.02 in
(0.51 mm)
10SM
14:15
Overcast
Rain
66°F / 19°C 61°F / 16°C 83% 29.92 in
(1013 mb)
SE 11.5 mph
(SE 19 kph)
0.02 in
(0.51 mm)
10SM
13:55
Overcast
Light Rain
70°F / 21°C 59°F / 15°C 69% 29.95 in
(1014 mb)
SE 13.8 mph
(SE 22 kph)
- 10SM
13:35
Overcast
72°F / 22°C 59°F / 15°C 65% 29.98 in
(1015 mb)
SSE 15 mph
(SSE 24 kph)
- 10SM
13:15
Overcast
72°F / 22°C 59°F / 15°C 65% 29.98 in
(1015 mb)
SSE 13.8 mph
(SSE 22 kph)
- 10SM
12:55
Overcast
72°F / 22°C 59°F / 15°C 65% 29.98 in
(1015 mb)
SSE 13.8 mph
(SSE 22 kph)
- 10SM
12:35
Overcast
72°F / 22°C 59°F / 15°C 65% 29.98 in
(1015 mb)
SSE 17.3 mph
(SSE 28 kph)
- 10SM
12:15
Partly Cloudy
72°F / 22°C 59°F / 15°C 65% 30.01 in
(1016 mb)
SSE 15 mph
(SSE 24 kph)
- 10SM
11:55
Partly Cloudy
72°F / 22°C 57°F / 14°C 61% 30.01 in
(1016 mb)
SE 18.4 mph
(SE 30 kph)
- 10SM
11:35
Mostly Cloudy
72°F / 22°C 59°F / 15°C 65% 30.04 in
(1017 mb)
SE 16.1 mph
(SE 26 kph)
- 10SM
11:15
Partly Cloudy
68°F / 20°C 59°F / 15°C 73% 30.04 in
(1017 mb)
SSE 11.5 mph
(SSE 19 kph)
- 10SM
10:55
Partly Cloudy
68°F / 20°C 59°F / 15°C 73% 30.04 in
(1017 mb)
SSE 16.1 mph
(SSE 26 kph)
- 10SM
10:35
Partly Cloudy
66°F / 19°C 59°F / 15°C 78% 30.06 in
(1018 mb)
SSE 8.1 mph
(SSE 13 kph)
- 10SM
10:15
Mostly Cloudy
64°F / 18°C 57°F / 14°C 78% 30.06 in
(1018 mb)
SE 9.2 mph
(SE 15 kph)
- 10SM
09:55
Partly Cloudy
61°F / 16°C 57°F / 14°C 88% 30.06 in
(1018 mb)
SSE 8.1 mph
(SSE 13 kph)
- 10SM
09:35
Mostly Cloudy
59°F / 15°C 55°F / 13°C 88% 30.09 in
(1019 mb)
SSE 6.9 mph
(SSE 11 kph)
- 10SM
09:15
Overcast
55°F / 13°C 54°F / 12°C 94% 30.09 in
(1019 mb)
SSE 3.5 mph
(SSE 6 kph)
- 10SM
08:55
Overcast
54°F / 12°C 52°F / 11°C 94% 30.09 in
(1019 mb)
SSE 4.6 mph
(SSE 7 kph)
- 10SM
08:35
Overcast
52°F / 11°C 50°F / 10°C 94% 30.12 in
(1020 mb)
SE 4.6 mph
(SE 7 kph)
- 10SM
08:15
Overcast
50°F / 10°C 48°F / 9°C 94% 30.12 in
(1020 mb)
Calm - 10SM
07:55
Mostly Cloudy
48°F / 9°C 46°F / 8°C 94% 30.12 in
(1020 mb)
Calm - 10SM
07:35
Overcast
46°F / 8°C 45°F / 7°C 93% 30.12 in
(1020 mb)
SE 3.5 mph
(SE 6 kph)
- 10SM
07:15
Mostly Cloudy
45°F / 7°C 45°F / 7°C 100% 30.12 in
(1020 mb)
SE 3.5 mph
(SE 6 kph)
- 10SM
06:55
Partly Cloudy
45°F / 7°C 43°F / 6°C 93% 30.12 in
(1020 mb)
SE 5.8 mph
(SE 9 kph)
- 10SM
06:35
Mostly Cloudy
45°F / 7°C 43°F / 6°C 93% 30.12 in
(1020 mb)
ESE 6.9 mph
(ESE 11 kph)
- 10SM
06:15
Overcast
45°F / 7°C 43°F / 6°C 93% 30.12 in
(1020 mb)
ENE 4.6 mph
(ENE 7 kph)
- 10SM
05:55
Overcast
45°F / 7°C 43°F / 6°C 93% 30.12 in
(1020 mb)
ENE 3.5 mph
(ENE 6 kph)
- 10SM
05:35
Overcast
45°F / 7°C 43°F / 6°C 93% 30.15 in
(1021 mb)
Calm - 10SM
05:15
Mostly Cloudy
41°F / 5°C 41°F / 5°C 100% 30.12 in
(1020 mb)
Calm - 10SM
04:55
Partly Cloudy
43°F / 6°C 41°F / 5°C 93% 30.12 in
(1020 mb)
Calm - 10SM
04:35
Mostly Cloudy
43°F / 6°C 41°F / 5°C 93% 30.12 in
(1020 mb)
Calm - 10SM
04:15
Mostly Cloudy
43°F / 6°C 41°F / 5°C 93% 30.12 in
(1020 mb)
ENE 3.5 mph
(ENE 6 kph)
- 10SM
03:55
Mostly Cloudy
43°F / 6°C 41°F / 5°C 93% 30.15 in
(1021 mb)
ENE 3.5 mph
(ENE 6 kph)
- 10SM
03:35
Mostly Cloudy
45°F / 7°C 41°F / 5°C 87% 30.15 in
(1021 mb)
Calm - 10SM
03:15
Overcast
45°F / 7°C 41°F / 5°C 87% 30.18 in
(1022 mb)
Calm - 10SM
02:55
Overcast
45°F / 7°C 41°F / 5°C 87% 30.18 in
(1022 mb)
Calm - 10SM
02:35
Overcast
45°F / 7°C 41°F / 5°C 87% 30.18 in
(1022 mb)
Calm - 10SM
02:15
Overcast
45°F / 7°C 41°F / 5°C 87% 30.18 in
(1022 mb)
Calm - 10SM
01:55
Overcast
43°F / 6°C 41°F / 5°C 93% 30.21 in
(1023 mb)
Calm - 10SM
01:35
Overcast
43°F / 6°C 41°F / 5°C 93% 30.21 in
(1023 mb)
Calm - 10SM
01:15
Overcast
43°F / 6°C 39°F / 4°C 87% 30.21 in
(1023 mb)
Calm - 10SM
00:55
Mostly Cloudy
43°F / 6°C 39°F / 4°C 87% 30.21 in
(1023 mb)
Calm - 10SM
00:35
Partly Cloudy
43°F / 6°C 39°F / 4°C 87% 30.21 in
(1023 mb)
ENE 4.6 mph
(ENE 7 kph)
- 10SM
00:15
Overcast
43°F / 6°C 39°F / 4°C 87% 30.24 in
(1024 mb)
E 3.5 mph
(E 6 kph)
- 10SM
Time Weather Temperature Dewpoint Humidity Pressure Winds Precip Visibility


Weather for websites

WeatherForYou.com, LLC is not responsible for any damages or problems caused by this service. Current weather conditions are obtained from the closest station including government and personal stations which may have varying degrees of accuracy. Weather forecasts are derived from the NOAA NDFD. Like all things, this site belongs to Jesus Christ... He just trusts us to maintain it. If you have any questions or comments email webmaster@weatherforyou.com

Copyright © 2016, WeatherForYou.com LLC. All rights reserved.